• MPC Preparation (Info)

  • MPEC 2016-O208: 2014 HD200

    The following Minor Planet Electronic Circular may be linked-to from your own Web pages, but must not otherwise be redistributed electronically.

    A form allowing access to any MPEC is at the bottom of this page.


    Read MPEC 2016-O207 Read MPEC 2016-O209


    M.P.E.C. 2016-O208                               Issued 2016 July 17, 16:49 UT
    
         The Minor Planet Electronic Circulars contain information on unusual
             minor planets and routine data on comets.  They are published
        on behalf of Division F of the International Astronomical Union by the
              Minor Planet Center, Smithsonian Astrophysical Observatory,
                              Cambridge, MA 02138, U.S.A.
    
                 Prepared using the Tamkin Foundation Computer Network
    
                                  MPC@CFA.HARVARD.EDU
                URL https://www.minorplanetcenter.net/    ISSN 1523-6714
    
                                      2014 HD200
    
    Observations:
         K14HK0D  C2012 04 27.42999 14 29 37.764-06 24 30.62         22.3 wLEO208F51
         K14HK0D  C2012 04 27.44498 14 29 37.693-06 24 30.32         22.4 wLEO208F51
         K14HK0D  C2012 04 27.45995 14 29 37.616-06 24 30.08         22.3 wLEO208F51
         K14HK0D  C2012 04 27.47494 14 29 37.524-06 24 29.76         22.3 wLEO208F51
         K14HK0D* C2014 04 29.35681 14 40 27.805-08 02 43.99         22.8 wLEO208F51
         K14HK0D  C2014 04 29.36936 14 40 27.738-08 02 43.75         22.7 wLEO208F51
         K14HK0D  C2014 04 29.38192 14 40 27.674-08 02 43.35         22.6 wLEO208F51
         K14HK0D  C2014 05 07.35230 14 39 46.524-07 59 58.98         22.1 iLEO208F51
         K14HK0D  C2014 05 07.36487 14 39 46.454-07 59 58.59         21.6 iLEO208F51
         K14HK0D  C2014 05 07.37745 14 39 46.408-07 59 58.37         21.9 iLEO208F51
         K14HK0D  C2014 05 27.33985 14 38 07.649-07 54 23.00         22.4 wLEO208F51
         K14HK0D  C2014 05 27.35093 14 38 07.609-07 54 22.88         22.4 wLEO208F51
         K14HK0D  C2014 05 27.36203 14 38 07.552-07 54 22.95         22.5 wLEO208F51
         K14HK0D  C2014 05 27.37314 14 38 07.487-07 54 22.63         22.1 wLEO208F51
         K14HK0D  C2015 05 22.38549 14 44 01.229-08 44 26.93         22.4 wLEO208F51
         K14HK0D  C2015 05 22.39877 14 44 01.190-08 44 26.93         22.6 wLEO208F51
         K14HK0D  C2015 05 22.41200 14 44 01.120-08 44 26.57         22.6 wLEO208F51
    
    Observer details:
    F51 Pan-STARRS 1, Haleakala.  Observers B. Gibson, T. Goggia, N. Primak,
        A. Schultz, M. Willman.  Measurers K. Chambers, S. Chastel, Y.-T. Chen,
        L. Denneau, H. Flewelling, M. Holman, M. Huber, R. Jedicke, M. Lackner,
        E. Lilly, H.-W. Lin, E. Magnier, M. Micheli, M. Payne, P. Veres,
        R. Wainscoat, C. Waters, R. Weryk.  1.8-m Ritchey-Chretien + CCD.
    
    Orbital elements:
    2014 HD200
    Epoch 2016 July 31.0 TT = JDT 2457600.5                 MPC
    M  60.51048              (2000.0)            P               Q
    n   0.00397114     Peri.   87.55978     -0.87872363     -0.41425270
    a  39.4935042      Node    67.88520     +0.26804660     -0.83933269
    e   0.0667068      Incl.   14.83171     +0.39496305     -0.35201612
    P 248              H    6.5           G   0.15           U   3
    Residuals in seconds of arc
    120427 F51  0.0   0.1+    140429 F51  0.0   0.0     140527 F51  0.1+  0.0
    120427 F51  0.1+  0.0     140507 F51  0.1-  0.1-    140527 F51  0.1-  0.2+
    120427 F51  0.1+  0.1-    140507 F51  0.1-  0.0     150522 F51  0.3-  0.1+
    120427 F51  0.1-  0.1-    140507 F51  0.2+  0.0     150522 F51  0.1+  0.1-
    140429 F51  0.0   0.1-    140527 F51  0.0   0.2+    150522 F51  0.1+  0.0
    140429 F51  0.1-  0.2-    140527 F51  0.2+  0.2+
    
    Ephemeris:
    2014 HD200               a,e,i = 39.49, 0.07, 15                 q = 36.859
    Date    TT    R. A. (2000) Decl.     Delta      r     Elong.  Phase     V
    2016 06 17    14 47 36.1 -09 28 06  37.5917 38.3288   136.0     1.1    22.5
    ...
    2016 07 02    14 46 50.6 -09 27 35  37.7880 38.3314   121.7     1.3    22.5
    ...
    2016 07 10    14 46 34.0 -09 28 03  37.9076 38.3327   114.0     1.4    22.5
    ...
    2016 07 16    14 46 25.3 -09 28 44  38.0022 38.3337   108.3     1.4    22.5
    2016 07 17    14 46 24.2 -09 28 53  38.0184 38.3339   107.4     1.5    22.5
    2016 07 18    14 46 23.2 -09 29 02  38.0346 38.3341   106.4     1.5    22.5
    ...
    2016 07 24    14 46 19.1 -09 30 06  38.1333 38.3351   100.7     1.5    22.5
    ...
    2016 08 01    14 46 19.2 -09 31 58  38.2678 38.3364    93.1     1.5    22.5
    ...
    2016 08 16    14 46 36.4 -09 36 47  38.5208 38.3390    78.9     1.5    22.5
    
    A. U. Tomatic                (C) Copyright 2016 MPC           M.P.E.C. 2016-O208
    

    Read MPEC 2016-O207 Read MPEC 2016-O209


    MPEC number:

    Enter an MPEC number in one of the following forms:

    • 1997-B01 (the full form)
    • J97B01 (the packed version of the full form)
    • B01 (the abbreviated form)